This is the latest recevied weather packets stored in our database for station/object PP5EO-15. If no packets are shown the sender has not sent any weather packets the latest 10 day(s).
| Time | Temp. | Humidity | Pressure | Rain* | Wind** | Luminosity | Snow |
|---|---|---|---|---|---|---|---|
| 1777659481 | 40.56° C | 26% | 1014.3 hPa | - | - | - | - |
| 1777658884 | 41.11° C | 25% | 1014.5 hPa | - | - | - | - |
| 1777658288 | 41.11° C | 25% | 1014.5 hPa | - | - | - | - |
| 1777657693 | 40.56° C | 26% | 1014.5 hPa | - | - | - | - |
| 1777657098 | 40.56° C | 27% | 1014.6 hPa | - | - | - | - |
| 1777656503 | 40.56° C | 26% | 1014.7 hPa | - | - | - | - |
| 1777655908 | 41.67° C | 25% | 1014.9 hPa | - | - | - | - |
| 1777655314 | 41.11° C | 25% | 1015 hPa | - | - | - | - |
| 1777654718 | 41.67° C | 25% | 1015.2 hPa | - | - | - | - |
| 1777654123 | 42.22° C | 23% | 1015.3 hPa | - | - | - | - |
| 1777653529 | 42.22° C | 23% | 1015.6 hPa | - | - | - | - |
| 1777652933 | 41.67° C | 24% | 1015.6 hPa | - | - | - | - |
| 1777652338 | 41.11° C | 24% | 1015.7 hPa | - | - | - | - |
| 1777651743 | 41.67° C | 23% | 1015.8 hPa | - | - | - | - |
| 1777651148 | 42.22° C | 22% | 1016.1 hPa | - | - | - | - |
| 1777650554 | 42.22° C | 23% | 1016.3 hPa | - | - | - | - |
| 1777649958 | 41.11° C | 23% | 1016.5 hPa | - | - | - | - |
| 1777649364 | 40.56° C | 24% | 1016.7 hPa | - | - | - | - |
| 1777648768 | 40° C | 25% | 1016.9 hPa | - | - | - | - |
| 1777648173 | 40.56° C | 25% | 1017.1 hPa | - | - | - | - |
| 1777647578 | 40.56° C | 24% | 1017.4 hPa | - | - | - | - |
| 1777646983 | 40° C | 25% | 1017.5 hPa | - | - | - | - |
| 1777646389 | 41.11° C | 23% | 1017.5 hPa | - | - | - | - |
| 1777645793 | 43.89° C | 20% | 1017.7 hPa | - | - | - | - |
| 1777645198 | 44.44° C | 20% | 1018 hPa | - | - | - | - |
* Rain since midnight (hover to see other rain measurements)
** Current wind speed in m/s (hover to see current wind gust speed)